Location: Gradaro
(45.0833°N, 10.8833°E)
Time: 04:39:55
(UTC+00:00)

deb Kosmos-970 - Visible Passes

Search period start: 15 June 2021 00:00
Search period end: 25 June 2021 00:00
Orbit: 831 x 1117 km, 66.1° (Epoch: 14 June)

Date Brightness Start Highest point End Pass type
(mag) Time Alt. Az. Time Alt. Az. Time Alt. Az.
15 Jun ? 01:25:43 24° SSW 01:29:12 88° WNW 01:34:51 10° NNE visible
16 Jun ? 00:05:34 25° SE 00:07:12 29° ESE 00:11:57 10° NE visible
16 Jun ? 01:50:10 16° WSW 01:54:29 48° NW 01:59:56 10° NNE visible
17 Jun ? 00:29:58 35° S 00:32:07 57° ESE 00:37:36 10° NE visible
17 Jun ? 02:15:11 10° W 02:20:00 29° NW 02:24:52 10° NNE visible
17 Jun ? 23:09:44 17° ESE 23:10:23 17° ESE 23:13:52 10° ENE visible
18 Jun ? 00:54:20 30° SW 00:57:14 77° NW 01:02:52 10° NNE visible
18 Jun ? 02:41:54 10° WNW 02:45:45 19° NNW 02:49:39 10° N visible
18 Jun ? 23:34:03 31° SE 23:35:09 34° ESE 23:40:07 10° NE visible
19 Jun ? 01:18:39 17° WSW 01:22:33 43° NW 01:27:55 10° NNE visible
19 Jun ? 23:58:20 43° S 00:00:06 66° ESE 00:05:40 10° NE visible
20 Jun ? 01:43:30 10° W 01:48:07 26° NW 01:52:49 10° NNE visible
20 Jun ? 22:38:00 20° ESE 22:38:18 20° ESE 22:42:15 10° ENE visible
21 Jun ? 00:22:35 31° SW 00:25:16 67° NW 00:30:53 10° NNE visible
21 Jun ? 02:10:21 10° WNW 02:13:56 17° NNW 02:17:34 10° N visible
21 Jun ? 23:02:11 37° SE 23:03:06 39° ESE 23:08:16 10° NE visible
22 Jun ? 00:46:47 17° WSW 00:50:38 38° NW 00:55:53 10° NNE visible
22 Jun ? 02:37:54 10° NW 02:39:59 12° NNW 02:42:05 10° N visible
22 Jun ? 21:41:45 11° E 21:41:45 11° E 21:42:58 10° E visible
22 Jun ? 23:26:20 45° SSW 23:28:05 77° ESE 23:33:43 10° NE visible
23 Jun ? 01:11:51 10° W 01:16:16 23° NW 01:20:46 10° NNE visible
23 Jun ? 22:05:50 23° ESE 22:06:13 23° ESE 22:10:33 10° ENE visible
23 Jun ? 23:50:25 28° WSW 23:53:18 58° NW 23:58:52 10° NNE visible
24 Jun ? 01:38:50 10° WNW 01:42:08 16° NNW 01:45:29 10° N visible
24 Jun ? 22:29:53 40° SSE 22:31:03 46° ESE 22:36:23 10° NE visible
